Flag Weather past 2 weeks in Hoshiarpur, Punjab, India

Now
54 °F

Fog.


Feels Like: 54 °F
Forecast: 49 / 78 °F
Wind: No wind

Location: Amritsar Airport

Current Time: Nov 24, 2014 at 11:51:50 PM

Latest Report: Nov 24, 2014 at 11:00 PM


Visibility: 1 mi

Pressure: 30.01 "Hg

Humidity: 77%

Dew point: 46 °F

Location of HoshiarpurLocation

Historic Weather in Hoshiarpur — Graph

°F

Hoshiarpur temperature yesterday

Maximum temperature yesterday: 77 °F (at 2:30 PM)
Minimum temperature yesterday: 48 °F (at 2:30 AM)
Average temperature yesterday: 60 °F

Past Weeks' High & Low Weather Summary

 TemperatureHumidityPressure
High81 °F (Nov 12, 2:00 PM)100% (Nov 10, 1:30 AM)30.12 "Hg (Nov 10, 1:30 AM)
Low46 °F (Nov 17, 7:30 AM)23% (Nov 13, 2:30 PM)29.89 "Hg (Nov 22, 3:00 PM)
Average62 °F69%30.00 "Hg
* Reported Nov 9 10:30 PM — Nov 24 10:30 PM, Hoshiarpur, Weather by CustomWeather, © 2014

Note: Actual official high and low records may vary slightly from our data, if they occured in-between our weather recording intervals... More about our weather records

Advertising

Hoshiarpur weather history for previous 24 hours

 ConditionsComfort  
Time TempWeatherWind HumidityBarometerVisibility
10:30 PM
Nov 24
54 °FFog.No wind82%30.01 "Hg1 mi
10:00 PM54 °FFog.No wind82%30.01 "Hg1 mi
9:30 PM55 °FHaze.No wind67%30.01 "Hg1 mi
8:00 PM59 °FHaze.No wind68%30.01 "Hg1 mi
7:30 PM61 °FPassing clouds.No wind63%30.01 "Hg1 mi
7:00 PM63 °FHaze.No wind64%30.01 "Hg1 mi
6:30 PM66 °FHaze.No wind49%29.98 "Hg2 mi
6:00 PM66 °FHaze.No wind49%29.98 "Hg2 mi
5:30 PM72 °FScattered clouds.No wind38%29.98 "Hg2 mi
4:30 PM75 °FScattered clouds.2 mph34%29.98 "Hg2 mi
4:00 PM75 °FScattered clouds.5 mph34%29.98 "Hg2 mi
3:30 PM75 °FScattered clouds.7 mph31%29.98 "Hg2 mi
12:00 PM73 °FScattered clouds.3 mph33%30.04 "Hg2 mi
11:30 AM72 °FScattered clouds.5 mph41%30.04 "Hg2 mi
10:00 AM63 °FFog.No wind68%30.04 "Hg1 mi
3:30 AM50 °FFog.No wind94%29.98 "Hg1 mi
2:30 AM50 °FFog.No wind94%29.98 "Hg1 mi
2:00 AM50 °FFog.No wind94%29.98 "Hg1 mi
1:30 AM52 °FFog.No wind88%29.98 "Hg1 mi
1:00 AM50 °FFog.No wind94%29.98 "Hg1 mi
12:30 AM52 °FFog.No wind82%29.98 "Hg1 mi
12:00 AM52 °FFog.No wind77%29.98 "Hg1 mi
11:30 PM
Nov 23
54 °FFog.No wind82%30.01 "Hg1 mi
11:00 PM54 °FFog.No wind77%30.01 "Hg1 mi
Weather by CustomWeather, © 2014

See weather overviewHow to use our weather pages